Location: Ames
(42.0350°N, 93.6200°W)
Time: 00:21:43
(UTC-05:00)

ISS - All Passes

Search period start: 31 July 2014 00:00
Search period end: 10 August 2014 00:00
Orbit: 411 x 419 km, 51.6° (Epoch: 31 July)

Date Brightness Start Highest point End Pass type
(mag) Time Alt. Az. Time Alt. Az. Time Alt. Az.
31 Jul - 01:04:09 10° WNW 01:06:59 25° NNW 01:09:51 10° NE visible
31 Jul - 02:42:25 10° NW 02:44:34 16° N 02:46:43 10° NE visible
31 Jul - 04:19:12 10° NW 04:22:07 26° NNE 04:25:01 10° E visible
31 Jul - 05:55:43 10° WNW 05:59:02 58° SW 06:02:19 10° SE daylight
31 Jul - 22:38:13 10° SSW 22:41:17 35° SE 22:44:23 10° ENE night (unlit)
01 Aug - 00:14:56 10° W 00:18:01 34° NNW 00:21:07 10° NE visible
01 Aug - 01:53:16 10° NW 01:55:28 16° N 01:57:40 10° NE visible
01 Aug - 03:30:27 10° NW 03:33:06 21° NNE 03:35:44 10° ENE visible
01 Aug - 05:06:50 10° NW 05:10:13 82° NE 05:13:34 10° ESE visible
01 Aug - 06:45:02 10° WSW 06:46:29 12° SW 06:47:56 10° SSW daylight
01 Aug - 21:50:02 10° S 21:52:35 21° SE 21:55:09 10° E visible
01 Aug - 23:25:49 10° WSW 23:29:04 50° NNW 23:32:21 10° NE night (unlit)
02 Aug - 01:04:00 10° NW 01:06:22 18° N 01:08:46 10° NE visible
02 Aug - 02:41:39 10° NW 02:44:02 18° N 02:46:25 10° NE visible
02 Aug - 04:18:03 10° NW 04:21:20 50° NNE 04:24:36 10° ESE visible
02 Aug - 05:55:13 10° W 05:57:50 21° SW 06:00:27 10° S daylight
02 Aug - 21:02:36 10° SSE 21:03:56 12° SE 21:05:16 10° ESE visible
02 Aug - 22:36:52 10° WSW 22:40:11 83° NW 22:43:33 10° NE visible
03 Aug - 00:14:41 10° WNW 00:17:18 21° NNW 00:19:56 10° NE visible
03 Aug - 01:52:44 10° NW 01:54:56 16° N 01:57:08 10° NE visible
03 Aug - 03:29:17 10° NW 03:32:23 33° NNE 03:35:29 10° E visible
03 Aug - 05:06:00 10° WNW 05:09:07 36° SW 05:12:14 10° SSE visible
03 Aug - 21:48:06 10° SW 21:51:21 57° SE 21:54:39 10° ENE visible
03 Aug - 23:25:22 10° W 23:28:16 26° NNW 23:31:10 10° NE visible
04 Aug - 01:03:40 10° NW 01:05:48 16° N 01:07:57 10° NE visible
04 Aug - 02:40:31 10° NW 02:43:23 25° NNE 02:46:13 10° ENE visible
04 Aug - 04:16:59 10° WNW 04:20:20 65° SW 04:23:39 10° SE visible
04 Aug - 20:59:36 10° SSW 21:02:35 32° SE 21:05:36 10° ENE visible
04 Aug - 22:36:08 10° W 22:39:15 36° NNW 22:42:24 10° NE visible
05 Aug - 00:14:27 10° NW 00:16:41 16° N 00:18:54 10° NE visible
05 Aug - 01:51:44 10° NW 01:54:19 20° NNE 01:56:54 10° ENE visible
05 Aug - 03:28:07 10° NW 03:31:28 74° NNE 03:34:49 10° ESE night (unlit)
05 Aug - 05:05:59 10° W 05:07:47 14° SW 05:09:35 10° SSW visible
05 Aug - 20:11:29 10° S 20:13:52 19° SE 20:16:15 10° E daylight
05 Aug - 21:47:02 10° WSW 21:50:18 55° NNW 21:53:36 10° NE visible
05 Aug - 23:25:09 10° WNW 23:27:34 18° NNW 23:29:59 10° NE visible
06 Aug - 01:02:53 10° NW 01:05:13 17° N 01:07:33 10° NE visible
06 Aug - 02:39:17 10° NW 02:42:33 45° NNE 02:45:47 10° ESE night (unlit)
06 Aug - 04:16:20 10° W 04:19:05 24° SW 04:21:50 10° S night (unlit)
06 Aug - 19:24:29 10° SE 19:25:11 11° SE 19:25:54 10° ESE daylight
06 Aug - 20:58:04 10° SW 21:01:24 89° SE 21:04:45 10° NE visible
06 Aug - 22:35:47 10° WNW 22:38:28 22° NNW 22:41:09 10° NE visible
07 Aug - 00:13:54 10° NW 00:16:04 16° N 00:18:15 10° NE visible
07 Aug - 01:50:30 10° NW 01:53:33 31° NNE 01:56:36 10° E visible
07 Aug - 03:27:09 10° WNW 03:30:20 41° SW 03:33:30 10° SSE night (unlit)
07 Aug - 20:09:20 10° SW 20:12:33 50° SE 20:15:47 10° ENE daylight
07 Aug - 21:46:28 10° W 21:49:24 28° NNW 21:52:21 10° NE visible
07 Aug - 23:24:47 10° NW 23:26:55 16° N 23:29:04 10° NE visible
08 Aug - 01:01:43 10° NW 01:04:30 24° NNE 01:07:17 10° ENE visible
08 Aug - 02:38:09 10° WNW 02:41:30 73° SW 02:44:50 10° SE night (unlit)
08 Aug - 19:20:51 10° SSW 19:23:45 28° SE 19:26:40 10° ENE daylight
08 Aug - 20:57:13 10° W 21:00:22 39° NNW 21:03:32 10° NE visible
08 Aug - 22:35:31 10° NW 22:37:46 17° N 22:40:01 10° NE visible
09 Aug - 00:12:53 10° NW 00:15:24 19° NNE 00:17:55 10° ENE visible
09 Aug - 01:49:15 10° NW 01:52:35 66° NNE 01:55:55 10° ESE night (unlit)
09 Aug - 03:26:53 10° W 03:28:57 15° SW 03:31:01 10° S night (unlit)
09 Aug - 18:32:50 10° S 18:35:00 17° SE 18:37:11 10° E daylight
09 Aug - 20:08:06 10° WSW 20:11:24 61° NNW 20:14:42 10° NE daylight
09 Aug - 21:46:09 10° WNW 21:48:37 19° NNW 21:51:05 10° NE visible
09 Aug - 23:23:58 10° NW 23:26:15 17° N 23:28:32 10° NE visible
